Regional Weather Roundup
Issued by NWS Jackson, KY

Home | Current Version | Previous Version | Text Only | Print | Product List | Glossary On
Versions: 1 2 3 4 5 6 7 8 9 10 11 12 13 14 15 16 17 18 19 20 21 22 23 24 25
000
ASUS43 KJKL 291710
RWRJKL

EAST KENTUCKY HOURLY WEATHER ROUNDUP
NATIONAL WEATHER SERVICE JACKSON KY
100 PM EDT THU JUN 29 2017

NOTE: "FAIR" INDICATES FEW OR NO CLOUDS BELOW 12,000 FEET WITH
NO SIGNIFICANT WEATHER AND/OR OBSTRUCTIONS TO VISIBILITY.

* THESE REPORTS ARE NOT UNDER NWS QUALITY CONTROL AND MAY NOT
  REPORT WEATHER SUCH AS PRECIPITATION AND FOG.

KYZ079-080-083-085-087-088-110-112-115-119-120-291800
...EASTERN KENTUCKY...

CITY           SKY/WX    TMP DP  RH WIND       PRES   REMARKS
JACKSON        CLOUDY    81  66  60 VRB6      30.11F
LONDON         MOSUNNY   83  65  54 SW13G21   30.11F
SOMERSET*      CLOUDY    81  64  57 SW10G22   30.10S
MONTICELLO*    PTSUNNY   83  71  67 S8G18     30.11S
WILLIAMSBURG*  MOSUNNY   81  66  61 SW14G21   30.12S
MIDDLESBORO*   MOSUNNY   83  65  53 SW12      30.14S
HARLAN APT*    PTSUNNY   81  61  50 CALM      30.15F
PIKE CO APT*     N/A     82  63  53 SW8       30.12F
BIG SANDY APT* MOSUNNY   82  64  53 S9G17     30.11F
MOREHEAD APT*  CLOUDY    81  66  61 SW12G17   30.09R
ASHLAND*       PTSUNNY   82  70  65 SW12G20   30.04S
$$

KYZ035-036-041-042-044-050-067-078-099-291800
...CENTRAL KENTUCKY...

CITY           SKY/WX    TMP DP  RH WIND       PRES   REMARKS
MT STERLING*   CLOUDY    81  70  69 W10       30.08S
FLEMING/MASON* PTSUNNY   81  68  65 SW14G20   30.07R
DANVILLE*      PTSUNNY   82  68  61 SW17G25   30.08S
LEXINGTON      CLOUDY    81  67  62 SW14G26   30.06R
FRANKFORT      PTSUNNY   82  69  64 S12       30.04R
LOUISVILLE     PTSUNNY   87  69  54 S16G25    30.01R HX  91
LEBANON*       PTSUNNY   82  68  61 S15G22    30.06R
GLASGOW*       PTSUNNY   82  68  61 SW13      30.06R
BOWLING GREEN  PTSUNNY   85  70  60 SW14G24   30.04S
$$

KYZ091>093-OHZ055-061-077-WVZ005-015-034-035-042-291800
...SOUTHERN OHIO/WEST VIRGINIA...

CITY           SKY/WX    TMP DP  RH WIND       PRES   REMARKS
COVINGTON      PTSUNNY   83  70  64 SW17      29.99F
COLUMBUS       PTSUNNY   82  67  60 SW17G29   29.99F
DAYTON         PTSUNNY   83  66  56 SW21G26   29.99R
WILMINGTON     CLOUDY    81  69  67 SW18G32   29.99F
HUNTINGTON     MOSUNNY   84  65  52 SW13G22   30.06F
CHARLESTON     MOSUNNY   84  61  45 SW13G18   30.09F
PINEVILLE*     SUNNY     84  60  44 MISG      30.21S
BECKLEY        MOSUNNY   78  59  51 S12       30.21S
BLUEFIELD      PTSUNNY   76  56  49 W9        30.23F
LOGAN CO APT*    N/A     81  61  50 VRB5G14   30.14S
$$

VAZ002-007-008-TNZ017-027-036-066-071-291800
...SOUTHWEST VIRGINIA/EAST TENNESSEE...

CITY           SKY/WX    TMP DP  RH WIND       PRES   REMARKS
WISE*          MOSUNNY   79  59  50 SW10G17   30.23S
JONESVILLE*      N/A    N/A N/A N/A S3        30.17F
ABINGDON*      SUNNY     82  60  47 W6        30.20F
BRISTOL        MOSUNNY   84  61  45 VRB5      30.17F
MORRISTOWN*    SUNNY     84  61  45 SW12      30.14F
SEVIERVILLE*     N/A     86  61  42 SW7       30.12F
KNOXVILLE      PTSUNNY   84  63  49 SW12      30.12F
LAFOLLETTE*    PTSUNNY   82  66  57 S15       30.16F
OAK RIDGE      CLOUDY    84  63  49 VRB5      30.14F
CROSSVILLE     CLOUDY    75  67  76 S8G16     30.17F
NASHVILLE      PTSUNNY   85  69  58 S13G24    30.06F
$$

...KEY TO REMARKS...
VSB - VISIBILITY IN MILES
WCI - WIND CHILL INDEX
HX  - HEAT INDEX

$$




USA.gov is the U.S. government's official web portal to all federal, state and local government web resources and services.